Weather History for Tri-Cities, TN

Change the Weather History Date:

Wednesday, November 27, 2013

  Actual Average Record
Temperature  
Mean Temperature 32 °F 43 °F  
Max Temperature 39 °F 54 °F 77 °F (1990)
Min Temperature 25 °F 32 °F 15 °F (1977)
Degree Days  
Heating Degree Days 33 22  
Month to date heating degree days 552 482  
Since 1 July heating degree days 793 817  
Cooling Degree Days 0 0  
Month to date cooling degree days 0 0  
Year to date cooling degree days 1003 980  
Moisture  
Dew Point 23 °F    
Average Humidity 72    
Maximum Humidity 89    
Minimum Humidity 55    
Precipitation  
Precipitation 0.19 in 0.11 in 1.38 in (1959)
Month to date precipitation 3.94 2.74  
Year to date precipitation 51.34 37.28  
Snow  
Snow 1.40 in 0.00 in - ()
Month to date snowfall 1.4 0.1  
Since 1 July snowfall 1.4 0.2  
Since 1 September snowfall 1.4 0.2  
Snow Depth 1.00 in    
Sea Level Pressure  
Sea Level Pressure 29.93 in    
Wind  
Wind Speed 9 mph (NW)    
Max Wind Speed 18 mph    
Max Gust Speed 25 mph    
Visibility 5 miles    
Events Rain , Snow    
T = Trace of Precipitation, MM = Missing Value Source: NWS Daily Summary

Daily Weather History Graph

Daily Weather History Graph

Search for Another Location

Airport:

Trip Planner

Search our weather history database for the weather conditions in past years. The results will help you decide how hot, cold, wet, or windy it might be!

Date:

Astronomy

Nov. 27, 2013 Rise Set
Actual Time 7:19 AM EST 5:15 PM EST
Civil Twilight 6:51 AM EST 5:43 PM EST
Nautical Twilight 6:19 AM EST 6:15 PM EST
Astronomical Twilight 5:48 AM EST 6:46 PM EST
Moon 1:29 AM EST (11/27) 1:43 PM EST (11/27)
Length of Visible Light 10h 52m
Length of Day
9h 55m
Waning Crescent, 32% of the Moon is Illuminated
Nov 27
Waning Crescent
Dec 2
New
Dec 9
First Quarter
Dec 17
Full
Dec 25
Last Quarter

Hourly Weather History & Observations

Time (EST) Temp. Windchill Dew Point Humidity Pressure Visibility Wind Dir Wind Speed Gust Speed Precip Events Conditions
12:53 AM 39.0 °F 32.3 °F 33.1 °F 79% 29.74 in 10.0 mi NNW 10.4 mph - 0.04 in Rain Light Rain
1:53 AM 34.0 °F 27.2 °F 30.0 °F 85% 29.75 in 3.0 mi North 8.1 mph - 0.03 in Snow Light Snow
2:53 AM 34.0 °F 27.2 °F 30.0 °F 85% 29.76 in 3.0 mi North 8.1 mph - 0.03 in Snow Light Snow
3:53 AM 33.1 °F 28.7 °F 28.9 °F 85% 29.77 in 3.0 mi North 4.6 mph - 0.03 in Snow Light Snow
4:53 AM 33.1 °F 30.0 °F 28.9 °F 85% 29.78 in 3.0 mi NNW 3.5 mph - 0.01 in Snow Light Snow
5:19 AM 33.1 °F 25.5 °F 28.9 °F 85% 29.80 in 2.5 mi WNW 9.2 mph - 0.00 in Snow Light Snow
5:39 AM 32.0 °F 22.5 °F 28.0 °F 85% 29.81 in 3.0 mi NW 12.7 mph - 0.00 in Snow Light Snow
5:46 AM 32.0 °F 23.6 °F 27.0 °F 82% 29.81 in 2.5 mi NNW 10.4 mph - 0.00 in Snow Light Snow
5:53 AM 32.0 °F 27.5 °F 27.0 °F 82% 29.81 in 2.0 mi NNW 4.6 mph - 0.01 in Snow Light Snow
6:21 AM 30.9 °F 26.2 °F 27.0 °F 85% 29.82 in 1.0 mi Variable 4.6 mph - 0.01 in Snow Light Snow
6:53 AM 30.9 °F 22.2 °F 27.0 °F 85% 29.82 in 1.0 mi NW 10.4 mph - 0.03 in Snow Light Snow
7:08 AM 30.9 °F 25.2 °F 26.1 °F 82% 29.84 in 1.0 mi NNW 5.8 mph - 0.00 in Snow Light Snow
7:22 AM 30.0 °F 25.2 °F 26.1 °F 85% 29.84 in 0.8 mi NW 4.6 mph - 0.01 in Snow Light Snow
7:53 AM 30.9 °F 23.5 °F 26.1 °F 82% 29.84 in 0.8 mi NW 8.1 mph - 0.02 in Snow Light Snow
7:55 AM 30.9 °F 24.3 °F 26.1 °F 82% 29.85 in 1.5 mi NW 6.9 mph - 0.00 in Snow Light Snow
8:53 AM 30.9 °F 23.5 °F 26.1 °F 82% 29.85 in 2.0 mi NW 8.1 mph - 0.00 in Snow Light Snow
9:01 AM 30.9 °F 23.5 °F 25.0 °F 79% 29.87 in 8.0 mi NW 8.1 mph - 0.00 in Snow Light Snow
9:18 AM 32.0 °F 25.6 °F 25.0 °F 75% 29.87 in 10.0 mi NW 6.9 mph - 0.00 in   Overcast
9:53 AM 30.9 °F 24.3 °F 25.0 °F 79% 29.86 in 8.0 mi NNW 6.9 mph - 0.00 in Snow Light Snow
10:41 AM 30.9 °F 24.3 °F 25.0 °F 79% 29.87 in 3.0 mi West 6.9 mph - 0.00 in Snow Light Snow
10:53 AM 30.9 °F 24.3 °F 25.0 °F 79% 29.86 in 2.5 mi West 6.9 mph - 0.00 in Snow Light Snow
11:26 AM 30.9 °F 25.2 °F 26.1 °F 82% 29.88 in 2.0 mi WNW 5.8 mph - 0.00 in Snow Light Snow
11:53 AM 32.0 °F 22.5 °F 25.0 °F 75% 29.87 in 2.5 mi NW 12.7 mph - 0.00 in Snow Light Snow
12:05 PM 32.0 °F 23.6 °F 24.1 °F 73% 29.87 in 2.5 mi WNW 10.4 mph 19.6 mph 0.00 in   Haze
12:21 PM 30.9 °F 22.2 °F 23.0 °F 72% 29.88 in 9.0 mi North 10.4 mph - 0.00 in Snow Light Snow
12:53 PM 30.9 °F 22.2 °F 21.0 °F 67% 29.89 in 10.0 mi NNW 10.4 mph 17.3 mph 0.00 in   Overcast
1:53 PM 28.9 °F 18.2 °F 21.9 °F 75% 29.93 in 2.0 mi WNW 13.8 mph 21.9 mph 0.00 in Snow Light Snow
2:04 PM 28.9 °F 17.7 °F 21.9 °F 75% 29.93 in 2.0 mi West 15.0 mph - 0.00 in Snow Light Snow
2:23 PM 28.9 °F 18.2 °F 19.0 °F 67% 29.95 in 3.0 mi NW 13.8 mph - 0.00 in Snow Light Snow
2:51 PM 30.2 °F 23.4 °F 19.4 °F 64% 29.96 in 3.0 mi NNW 6.9 mph - 0.00 in   Overcast
2:53 PM 30.0 °F 23.2 °F 19.9 °F 66% 29.97 in 3.0 mi NNW 6.9 mph - 0.00 in   Haze
3:53 PM 28.9 °F 17.7 °F 19.0 °F 67% 30.02 in 3.0 mi NW 15.0 mph 20.7 mph 0.00 in Snow Light Snow
4:53 PM 28.0 °F 18.6 °F 19.0 °F 69% 30.06 in 3.0 mi North 10.4 mph 25.3 mph 0.00 in Snow Light Snow
5:00 PM 27.0 °F 16.7 °F 21.0 °F 78% 30.06 in 2.0 mi NNW 11.5 mph - 0.00 in Snow Light Snow
5:36 PM 27.0 °F 19.5 °F 19.9 °F 75% 30.08 in 9.0 mi WNW 6.9 mph - 0.00 in   Overcast
5:53 PM 28.0 °F 18.1 °F 19.9 °F 72% 30.10 in 7.0 mi NW 11.5 mph - 0.00 in Snow Light Snow
6:53 PM 27.0 °F 16.1 °F 17.1 °F 66% 30.14 in 10.0 mi WNW 12.7 mph - 0.00 in   Overcast
7:53 PM 27.0 °F 18.0 °F 16.0 °F 63% 30.19 in 10.0 mi NNW 9.2 mph - 0.00 in Snow Light Snow
8:53 PM 26.1 °F 16.2 °F 14.0 °F 60% 30.21 in 10.0 mi NW 10.4 mph - 0.00 in   Overcast
9:53 PM 26.1 °F 16.2 °F 12.9 °F 58% 30.23 in 10.0 mi WNW 10.4 mph - N/A   Overcast
10:53 PM 26.1 °F 17.6 °F 14.0 °F 60% 30.25 in 9.0 mi NW 8.1 mph - 0.00 in Snow Light Snow
11:53 PM 25.0 °F 18.1 °F 15.1 °F 66% 30.26 in 9.0 mi NW 5.8 mph - 0.00 in Snow Light Snow